Total_Precipitation_Accumulation
0.13 0.09 0.06 0.07 0.06 0.06 0.08 0.09 0.12 0.23 0.40 0.53 0.77 0.87 0.81 0.67 0.61 0.60 0.58 0.54 0.50 0.44 0.36 0.27 0.21 0.17 0.14 0.13 0.12 0.09 0.08 0.08 0.08 0.08 0.08 0.10 0.11 0.11 0.11 0.11 0.09 0.09 0.08 0.07
0.11 0.10 0.09 0.10 0.10 0.12 0.16 0.18 0.25 0.39 0.60 0.79 0.81 0.76 0.73 0.66 0.60 0.63 0.71 0.73 0.68 0.56 0.43 0.31 0.25 0.23 0.21 0.19 0.15 0.12 0.12 0.13 0.13 0.13 0.14 0.15 0.15 0.14 0.14 0.12 0.11 0.08 0.05 0.03
0.12 0.10 0.12 0.22 0.23 0.25 0.28 0.29 0.35 0.45 0.55 0.62 0.67 0.68 0.70 0.69 0.70 0.76 0.80 0.77 0.67 0.54 0.43 0.39 0.37 0.35 0.31 0.27 0.23 0.21 0.20 0.19 0.18 0.17 0.18 0.17 0.15 0.13 0.11 0.09 0.07 0.05 0.04 0.03
0.10 0.12 0.23 0.34 0.27 0.26 0.24 0.23 0.25 0.30 0.34 0.42 0.54 0.62 0.68 0.72 0.80 0.89 0.91 0.85 0.74 0.61 0.53 0.47 0.43 0.39 0.34 0.29 0.25 0.24 0.24 0.23 0.22 0.19 0.17 0.14 0.11 0.09 0.07 0.06 0.05 0.04 0.04 0.03
0.13 0.19 0.26 0.29 0.20 0.22 0.26 0.24 0.20 0.22 0.26 0.33 0.39 0.48 0.67 0.75 0.78 0.83 0.85 0.79 0.70 0.60 0.54 0.51 0.45 0.39 0.33 0.31 0.28 0.26 0.24 0.20 0.16 0.12 0.10 0.08 0.06 0.05 0.04 0.04 0.04 0.03 0.03 0.04
0.20 0.30 0.39 0.37 0.18 0.13 0.22 0.33 0.26 0.21 0.22 0.28 0.38 0.52 0.56 0.56 0.58 0.57 0.56 0.53 0.53 0.55 0.54 0.50 0.42 0.34 0.31 0.28 0.24 0.20 0.14 0.10 0.07 0.05 0.04 0.03 0.03 0.04 0.04 0.04 0.04 0.03 0.03 0.05
0.31 0.40 0.45 0.21 0.10 0.15 0.36 0.47 0.43 0.37 0.35 0.37 0.45 0.47 0.40 0.35 0.39 0.41 0.43 0.47 0.48 0.47 0.46 0.40 0.30 0.23 0.21 0.18 0.15 0.11 0.07 0.05 0.03 0.02 0.02 0.02 0.03 0.05 0.06 0.06 0.06 0.05 0.05 0.06
0.37 0.48 0.55 0.21 0.14 0.28 0.34 0.30 0.39 0.40 0.40 0.41 0.39 0.32 0.28 0.29 0.32 0.36 0.42 0.46 0.46 0.42 0.36 0.27 0.20 0.16 0.15 0.12 0.08 0.06 0.05 0.04 0.03 0.02 0.02 0.02 0.05 0.08 0.08 0.08 0.07 0.06 0.06 0.06
0.44 0.48 0.35 0.16 0.14 0.16 0.20 0.24 0.26 0.26 0.28 0.36 0.41 0.38 0.32 0.33 0.38 0.43 0.46 0.46 0.40 0.33 0.25 0.17 0.11 0.10 0.10 0.08 0.05 0.05 0.07 0.06 0.04 0.03 0.03 0.03 0.06 0.08 0.09 0.08 0.06 0.05 0.06 0.05
0.39 0.39 0.27 0.18 0.14 0.12 0.14 0.20 0.21 0.24 0.28 0.35 0.48 0.50 0.43 0.40 0.42 0.43 0.40 0.31 0.23 0.16 0.11 0.08 0.05 0.04 0.04 0.03 0.03 0.05 0.06 0.05 0.04 0.05 0.06 0.06 0.07 0.06 0.07 0.07 0.05 0.05 0.06 0.06
0.61 0.55 0.41 0.25 0.18 0.18 0.18 0.22 0.29 0.36 0.38 0.41 0.42 0.42 0.40 0.38 0.34 0.27 0.19 0.12 0.09 0.07 0.05 0.03 0.02 0.02 0.01 0.02 0.02 0.05 0.06 0.04 0.04 0.05 0.05 0.09 0.09 0.05 0.04 0.04 0.02 0.03 0.05 0.07
0.92 0.70 0.57 0.44 0.34 0.36 0.36 0.35 0.36 0.35 0.34 0.33 0.29 0.26 0.25 0.22 0.17 0.13 0.09 0.07 0.06 0.04 0.02 0.01 0.01 0.00 0.00 0.00 0.01 0.04 0.06 0.05 0.03 0.03 0.05 0.06 0.10 0.10 0.04 0.01 0.00 0.01 0.03 0.05
0.73 0.58 0.53 0.52 0.48 0.47 0.42 0.31 0.26 0.23 0.20 0.21 0.20 0.16 0.14 0.11 0.08 0.06 0.05 0.04 0.04 0.03 0.01 0.00 0.00 0.00 0.00 0.00 0.00 0.01 0.04 0.04 0.02 0.02 0.03 0.04 0.07 0.11 0.13 0.08 0.02 0.02 0.02 0.03
0.49 0.47 0.49 0.39 0.29 0.22 0.15 0.11 0.13 0.16 0.15 0.12 0.11 0.10 0.07 0.05 0.04 0.03 0.03 0.02 0.02 0.01 0.00 0.00 0.00 0.00 0.00 0.00 0.01 0.01 0.02 0.02 0.02 0.02 0.02 0.03 0.04 0.06 0.09 0.13 0.13 0.11 0.06 0.04
0.28 0.24 0.19 0.11 0.08 0.07 0.07 0.07 0.09 0.11 0.11 0.09 0.06 0.05 0.04 0.03 0.03 0.02 0.01 0.00 0.00 0.00 0.00 0.00 0.00 0.00 0.00 0.00 0.01 0.01 0.01 0.02 0.02 0.01 0.01 0.01 0.02 0.03 0.05 0.08 0.11 0.11 0.09 0.06
0.10 0.07 0.05 0.05 0.05 0.05 0.06 0.07 0.07 0.07 0.07 0.07 0.05 0.04 0.03 0.02 0.01 0.01 0.00 0.00 0.00 0.01 0.00 0.00 0.00 0.00 0.00 0.00 0.01 0.02 0.01 0.00 0.00 0.01 0.01 0.01 0.01 0.02 0.05 0.08 0.08 0.09 0.09 0.07
0.05 0.04 0.03 0.04 0.04 0.05 0.05 0.04 0.04 0.04 0.05 0.05 0.03 0.02 0.01 0.01 0.01 0.01 0.00 0.00 0.00 0.00 0.00 0.00 0.00 0.00 0.00 0.00 0.01 0.01 0.01 0.01 0.00 0.00 0.00 0.00 0.01 0.01 0.02 0.05 0.07 0.07 0.07 0.08
0.02 0.02 0.02 0.02 0.02 0.02 0.02 0.02 0.02 0.02 0.02 0.01 0.01 0.00 0.00 0.00 0.01 0.00 0.00 0.00 0.00 0.00 0.00 0.00 0.00 0.00 0.00 0.00 0.00 0.00 0.01 0.01 0.00 0.00 0.00 0.00 0.00 0.01 0.01 0.02 0.04 0.06 0.08 0.09
0.01 0.01 0.01 0.01 0.01 0.01 0.01 0.01 0.01 0.00 0.00 0.00 0.00 0.00 0.00 0.00 0.00 0.00 0.00 0.00 0.00 0.00 0.00 0.00 0.00 0.00 0.00 0.00 0.00 0.00 0.00 0.01 0.01 0.00 0.00 0.00 0.00 0.01 0.01 0.01 0.02 0.04 0.06 0.08
0.01 0.02 0.01 0.01 0.00 0.00 0.00 0.00 0.00 0.00 0.00 0.00 0.00 0.00 0.00 0.00 0.00 0.00 0.00 0.00 0.00 0.00 0.00 0.00 0.00 0.00 0.00 0.00 0.00 0.00 0.00 0.00 0.00 0.00 0.00 0.00 0.00 0.00 0.01 0.01 0.01 0.02 0.04 0.06
0.02 0.02 0.02 0.00 0.00 0.00 0.00 0.00 0.01 0.01 0.00 0.00 0.00 0.00 0.00 0.00 0.00 0.00 0.00 0.00 0.00 0.00 0.00 0.00 0.00 0.00 0.00 0.00 0.00 0.00 0.00 0.00 0.00 0.00 0.00 0.00 0.00 0.00 0.00 0.01 0.01 0.02 0.03 0.04
0.03 0.04 0.02 0.01 0.01 0.01 0.01 0.01 0.00 0.00 0.00 0.00 0.00 0.00 0.00 0.00 0.00 0.00 0.00 0.00 0.00 0.00 0.00 0.00 0.00 0.00 0.00 0.00 0.00 0.00 0.00 0.00 0.00 0.00 0.00 0.00 0.00 0.00 0.00 0.00 0.01 0.01 0.02 0.02
0.06 0.04 0.03 0.02 0.02 0.01 0.01 0.01 0.00 0.00 0.00 0.00 0.00 0.00 0.00 0.00 0.00 0.00 0.00 0.00 0.00 0.00 0.00 0.00 0.00 0.00 0.00 0.00 0.00 0.00 0.00 0.00 0.00 0.00 0.00 0.00 0.00 0.00 0.00 0.00 0.01 0.01 0.01 0.01
0.10 0.08 0.05 0.03 0.02 0.02 0.02 0.01 0.00 0.00 0.00 0.00 0.00 0.00 0.00 0.00 0.00 0.00 0.00 0.00 0.00 0.00 0.00 0.00 0.00 0.00 0.00 0.00 0.00 0.00 0.00 0.00 0.00 0.00 0.00 0.00 0.00 0.00 0.00 0.00 0.00 0.00 0.01 0.00
0.14 0.10 0.06 0.05 0.05 0.04 0.02 0.01 0.00 0.00 0.00 0.00 0.00 0.00 0.00 0.00 0.00 0.00 0.00 0.00 0.00 0.00 0.00 0.00 0.00 0.00 0.00 0.00 0.00 0.00 0.00 0.00 0.00 0.00 0.00 0.00 0.00 0.00 0.00 0.00 0.00 0.00 0.00 0.00
0.20 0.17 0.13 0.09 0.05 0.02 0.01 0.00 0.00 0.00 0.00 0.00 0.00 0.00 0.00 0.00 0.00 0.00 0.00 0.00 0.00 0.00 0.00 0.00 0.00 0.00 0.00 0.00 0.00 0.00 0.00 0.00 0.00 0.00 0.00 0.00 0.00 0.00 0.00 0.00 0.00 0.00 0.00 0.00
0.25 0.21 0.16 0.10 0.04 0.01 0.00 0.00 0.00 0.00 0.00 0.00 0.00 0.00 0.00 0.00 0.00 0.00 0.00 0.00 0.00 0.00 0.00 0.00 0.00 0.00 0.00 0.00 0.00 0.00 0.00 0.00 0.00 0.00 0.00 0.00 0.00 0.00 0.00 0.00 0.00 0.00 0.00 0.00